Home   Weather   Iqaluit   Past weeks

Flag for Canada Past Weather in Iqaluit, Nunavut, Canada — Yesterday and Last 2 Weeks

Now
-11 °F

Low level haze.


Feels Like: -40 °F
Forecast: -14 / -8 °F
Wind: 26 mph from North

Location: Iqaluit

Current Time: Jan 24, 2017 at 12:44:48 pm

Latest Report: Jan 24, 2017 at 12:00 pm


Visibility: 15 mi

Pressure: 30.31 "Hg

Humidity: 70%

Dew Point: -18 °F

Location of IqaluitLocation

Past Weather in Iqaluit — Graph

°F

Iqaluit Temperature Yesterday

Maximum temperature yesterday: 9 °F (at 6:00 am)
Minimum temperature yesterday: -11 °F (at 10:00 pm)
Average temperature yesterday: -2 °F

High & Low Weather Summary for the Past Weeks

 TemperatureHumidityPressure
High10 °F (Jan 18, 11:20 am)85% (Jan 12, 2:24 am)30.37 "Hg (Jan 12, 2:24 am)
Low-31 °F (Jan 11, 5:00 am)54% (Jan 22, 3:00 pm)29.09 "Hg (Jan 12, 8:00 am)
Average-10 °F74%29.78 "Hg
* Reported Jan 9 11:00 am — Jan 24 11:00 am, Iqaluit, Weather by CustomWeather, © 2017

Note: Actual official high and low records may vary slightly from our data, if they occured in-between our weather recording intervals... More about our weather records

Advertising

Iqaluit Weather History for the Previous 24 Hours

Scroll right to see more
 ConditionsComfort  
Time TempWeatherWind HumidityBarometerVisibility
11:00 am
Tue, Jan 24
-11 °FSunny.25 mph70%30.31 "Hg15 mi
10:00 am-11 °FSunny.29 mph70%30.29 "Hg5 mi
9:47 am-11 °FSunny.25 mph76%30.28 "Hg5 mi
9:00 am-11 °FSunny.26 mph76%30.28 "Hg2 mi
8:33 am-11 °FClear.25 mph76%30.27 "Hg2 mi
8:00 am-11 °FClear.32 mph76%30.24 "Hg1 mi
7:13 am-11 °FClear.33 mph76%30.24 "Hg1 mi
7:00 am-11 °FClear.29 mph76%30.26 "Hg1 mi
6:15 am-11 °FIce fog.31 mph76%30.24 "Hg1 mi
6:00 am-11 °FIce fog.24 mph76%30.25 "Hg1 mi
5:00 am-11 °FClear.28 mph76%30.23 "Hg1 mi
4:00 am-13 °FClear.21 mph76%30.23 "Hg1 mi
3:00 am-13 °FClear.28 mph76%30.21 "Hg1 mi
2:10 am-11 °FIce fog.28 mph70%30.21 "Hg1 mi
1:00 am-11 °FIce fog.31 mph76%30.17 "Hg1 mi
12:00 am-11 °FIce fog.35 mph76%30.14 "Hg1 mi
11:00 pm
Mon, Jan 23
-11 °FIce fog.32 mph76%30.13 "Hg1 mi
10:15 pm-11 °FIce fog.35 mph76%30.11 "Hg1 mi
10:00 pm-11 °FIce fog.31 mph76%30.11 "Hg1 mi
9:44 pm-9 °FIce fog.32 mph77%30.09 "Hg1 mi
9:00 pm-9 °FIce fog.30 mph77%30.09 "Hg1 mi
8:39 pm-9 °FIce fog.30 mph77%30.09 "Hg1 mi
8:17 pm-9 °FIce fog.28 mph77%30.08 "Hg0 mi
8:00 pm-9 °FIce fog.38 mph77%30.04 "Hg0 mi
7:00 pm-9 °FIce fog.36 mph77%30.01 "Hg0 mi
6:12 pm-8 °FIce fog.44 mph77%29.97 "Hg0 mi
6:00 pm-8 °FIce fog.43 mph77%29.98 "Hg1 mi
5:45 pm-8 °FClear.41 mph77%29.98 "Hg1 mi
5:00 pm-8 °FPassing clouds.39 mph77%29.98 "Hg1 mi
4:25 pm-6 °FLow clouds.37 mph77%29.97 "Hg1 mi
4:00 pm-6 °FOvercast.33 mph77%29.98 "Hg1 mi
3:00 pm-4 °FPassing clouds.32 mph77%29.95 "Hg1 mi
2:49 pm-4 °FScattered clouds.33 mph77%29.94 "Hg1 mi
2:00 pm-2 °FScattered clouds.30 mph77%29.93 "Hg2 mi
1:56 pm-2 °FPartly sunny.30 mph84%29.93 "Hg2 mi
1:00 pm0 °FLight snow. Partly sunny.38 mph78%29.90 "Hg1 mi
12:00 pm1 °FLight snow. Partly sunny.38 mph85%29.88 "Hg1 mi
Weather by CustomWeather, © 2017

See weather overviewHow to use our weather pages